Regional Weather Roundup
Issued by NWS

Home | Current Version | Previous Version | Graphics & Text | Print | Product List | Glossary On
Versions: 1 2 3 4 5 6 7 8 9 10 11 12 13 14 15 16 17 18 19 20 21 22 23 24 25 26 27 28 29 30 31 32 33 34 35 36 37 38 39 40 41 42 43 44 45 46 47 48 49 50
000
ASUS43 KLOT 011410
RWRIL

ILLINOIS REGIONAL WEATHER ROUNDUP
NATIONAL WEATHER SERVICE CHICAGO/ROMEOVILLE IL
900 AM CDT WED OCT 01 2014

NOTE: "FAIR" INDICATES FEW OR NO CLOUDS BELOW 12,000 FEET WITH NO
SIGNIFICANT WEATHER AND/OR OBSTRUCTIONS TO VISIBILITY.

* THESE STATIONS ARE NOT UNDER NWS QUALITY CONTROL. THEY ALSO MAY NOT
  REPORT WEATHER SUCH AS PRECIPITATION OR FOG.

ILZ001-002-007-009-015-016-024-011500-
NORTHWEST ILLINOIS

CITY           SKY/WX    TMP DP  RH WIND       PRES   REMARKS
MOLINE         NOT AVBL
SAVANNA*       MOSUNNY   55  47  73 SE6       29.96F
$$

ILZ003-004-008-010-011-017-018-011500-
NORTH CENTRAL ILLINOIS

CITY           SKY/WX    TMP DP  RH WIND       PRES   REMARKS
ROCKFORD       MOSUNNY   54  47  77 SE9       30.02R
FREEPORT*      PTSUNNY   51  47  86 SE8       30.00S
ROCHELLE*      CLOUDY    54  48  79 SE9       30.00S
DE KALB*       MOSUNNY   53  47  81 SE14      30.01R
PERU*          SUNNY     55  48  78 SE9       29.99S
$$

ILZ005-006-012>014-019>023-011500-
NORTHEAST ILLINOIS

CITY           SKY/WX    TMP DP  RH WIND       PRES   REMARKS
CHICAGO-OHARE  MOSUNNY   56  47  71 SE13      30.02R
CHICAGO-MIDWAY MOSUNNY   58  48  69 SE13      30.02R
AURORA         SUNNY     55  47  74 SE10      30.02R
LANSING*       SUNNY     54  49  86 SE8       30.03R
JOLIET*        SUNNY     54  48  80 SE7       30.02R
WAUKEGAN       NOT AVBL
DUPAGE AIRPORT SUNNY     56  47  71 SE12      30.01S
KANKAKEE*      SUNNY     53  49  85 SE6       30.03R
WHEELING       SUNNY     58  48  69 S10       30.04R
MORRIS*        SUNNY     55  50  83 SE8       30.01R
ROMEOVILLE*    SUNNY     55  48  77 SE8       30.03R
NORTHERLY ISL    N/A     57  48  72 SE15        N/A
$$

LMZ740>746-011500-
SOUTHERN LAKE MICHIGAN

STATION/POSITION SKY/WX   TEMP    WIND        PRES    VSBY  WAVE
                          AIR SEA DIR/SP/G                  HT/PER
                          (F)     (DEG/KT/KT) (MB)    (MI)  (FT/S)
SOUTHERN BUOY              56 61  150/ 10/ 14 1017.2R         2/ 3
WAUKEGAN HARBOR            58     160/ 13/ 14   N/A
HARRISON CRIB              56     160/ 14/ 20   N/A
BURNHAM HARBOR             57     130/ 12/ 15   N/A
CALUMET HARBOR             56     140/  7/ 10 1015.7R
MICHIGAN CITY 6N           55 64  130/ 10/ 12   N/A           1/ 2
ST. JOSEPH                 55 62  130/  6/  8   N/A           1/ 2
$$

ILZ025>027-034>036-040-047-049-050-058-095>099-011500-
WEST-CENTRAL ILLINOIS

CITY           SKY/WX    TMP DP  RH WIND       PRES   REMARKS
QUINCY         MOSUNNY   61  55  81 SE13      29.89S
GALESBURG*     MOSUNNY   57  51  80 SE7       29.93F
MACOMB*        MOSUNNY   57  52  81 SE12      29.95S
JACKSONVILLE*  SUNNY     62  56  82 SE7       29.93F
PITTSFIELD*    SUNNY     62  57  85 SE8       29.92S
$$

ILZ028>032-037-038-041>044-048-051>054-059>061-011500-
CENTRAL ILLINOIS

CITY           SKY/WX    TMP DP  RH WIND       PRES   REMARKS
PONTIAC        MOSUNNY   55  50  82 SE8       29.99S
BLOOMINGTON    SUNNY     57  52  84 SE10        N/A
DECATUR        MOSUNNY   58  53  84 SE9       29.98R
PEORIA         SUNNY     59  50  72 SE9       29.97R
LACON*         MOSUNNY   55  48  76 SE8       29.97S
LINCOLN*       SUNNY     60  53  76 SE10      29.94S
SPRINGFIELD    SUNNY     60  53  77 SE7       29.95R
TAYLORVILLE    SUNNY     59  54  82 SE9       29.95S
$$

ILZ033-039-045-046-055>057-062-063-011500-
EAST-CENTRAL ILLINOIS

CITY           SKY/WX    TMP DP  RH WIND       PRES   REMARKS
CHAMPAIGN      MOSUNNY   55  52  88 SE10      29.99S
DANVILLE*      PTSUNNY   55  49  80 SE7       29.98S
RANTOUL*       MOSUNNY   57  49  73 SE8       30.00S
MATTOON        SUNNY     59  54  83 SE6       29.98R
PARIS*         MOSUNNY   58  53  85 SE6       30.01R
$$

ILZ079-100>102-011500-
SOUTHWEST ILLINOIS

CITY           SKY/WX    TMP DP  RH WIND       PRES   REMARKS
ALTON          SUNNY     63  59  88 SE9       29.93S
BELLEVILLE     SUNNY     63  62  99 SE5       29.93R
CAHOKIA*       SUNNY     67  61  81 VRB5      29.93R
SPARTA*        SUNNY     64  61  88 SE5       29.95R FOG
$$

ILZ064>066-069>071-074>076-080>082-084>086-088>090-092>094-011500-
SOUTH-CENTRAL ILLINOIS

CITY           SKY/WX    TMP DP  RH WIND       PRES   REMARKS
CARBONDALE     PTSUNNY   65  61  87 CALM      29.95R FOG
CAIRO*         MOSUNNY   66  64  94 CALM      29.95R
EFFINGHAM*     SUNNY     63  55  77 E8        29.98R
MARION         PTSUNNY   66  61  82 SE5       29.96R
CENTRALIA*     MOSUNNY   65  59  81 E6        29.95S
SALEM*         PTSUNNY   64  60  88 E5        29.96R
METROPOLIS*    MOSUNNY   66  61  84 CALM      29.95R
$$

ILZ067-068-072-073-078-083-087-091-011500-
SOUTHEAST ILLINOIS

CITY           SKY/WX    TMP DP  RH WIND       PRES   REMARKS
LAWRENCEVILLE  SUNNY     61  57  87 E5        29.99R FOG
FLORA*         SUNNY     62  59  90 SE5       29.98R FOG
FAIRFIELD*     PTSUNNY   64  61  88 SE3       29.97R FOG
HARRISBURG*    MOSUNNY   67  64  91 CALM      29.97R
ROBINSON*      SUNNY     61  57  87 E6        30.00R
CARMI*         MOSUNNY   66  64  94 SE5       29.97R FOG
$$

ABBREVIATIONS USED IN REMARKS
   TC - TEMPERATURE IN CELSIUS
  WCI - WIND CHILL INDEX
   HX - HEAT INDEX
  VSB - VISIBILITY
$$



USA.gov is the U.S. government's official web portal to all federal, state and local government web resources and services.